Weather History for Flagstaff, AZ

Change the Weather History Date:

Wednesday, February 20, 2013

  Actual Average Record
Temperature  
Mean Temperature 25 °F 33 °F  
Max Temperature 31 °F 46 °F 65 °F (1977)
Min Temperature 19 °F 20 °F -11 °F (1955)
Degree Days  
Heating Degree Days 40 32  
Month to date heating degree days 715 669  
Since 1 July heating degree days 4552 4585  
Cooling Degree Days 0 0  
Month to date cooling degree days 0 0  
Year to date cooling degree days 0 0  
Moisture  
Dew Point 21 °F    
Average Humidity 79    
Maximum Humidity 100    
Minimum Humidity 58    
Precipitation  
Precipitation 0.33 in 0.08 in 1.18 in (1993)
Month to date precipitation 0.83 1.51  
Year to date precipitation 3.47 3.56  
Snow  
Snow 5.50 in 0.70 in 8.70 in (1987)
Month to date snowfall 18.8 15.5  
Since 1 July snowfall 51.8 67.8  
Snow Depth 3.00 in    
Sea Level Pressure  
Sea Level Pressure 29.58 in    
Wind  
Wind Speed 11 mph (SW)    
Max Wind Speed 28 mph    
Max Gust Speed 33 mph    
Visibility 3 miles    
Events Fog , Snow    
T = Trace of Precipitation, MM = Missing Value Source: NWS Daily Summary

Daily Weather History Graph

Daily Weather History Graph

Search for Another Location

Airport:

Trip Planner

Search our weather history database for the weather conditions in past years. The results will help you decide how hot, cold, wet, or windy it might be!

Date:

Astronomy

Feb. 20, 2013 Rise Set
Actual Time 7:06 AM MST 6:14 PM MST
Civil Twilight 6:41 AM MST 6:40 PM MST
Nautical Twilight 6:11 AM MST 7:09 PM MST
Astronomical Twilight 5:42 AM MST 7:39 PM MST
Moon 1:45 PM MST (2/20) 3:23 AM MST (2/20)
Length of Visible Light 11h 58m
Length of Day
11h 07m
Waxing Gibbous, 76% of the Moon is Illuminated
Feb 20
Waxing Gibbous
Feb 25
Full
Mar 4
Last Quarter
Mar 11
New
Mar 19
First Quarter

Hourly Weather History & Observations

Time (MST) Temp. Windchill Dew Point Humidity Pressure Visibility Wind Dir Wind Speed Gust Speed Precip Events Conditions
12:57 AM 30.0 °F 20.0 °F 17.1 °F 59% 29.51 in 10.0 mi SSW 12.7 mph 23.0 mph N/A   Clear
1:57 AM 28.9 °F 16.1 °F 18.0 °F 64% 29.49 in 10.0 mi SSW 19.6 mph 29.9 mph N/A   Mostly Cloudy
2:45 AM 28.4 °F 14.7 °F 21.2 °F 74% 29.56 in 7.0 mi SSW 21.9 mph 31.1 mph 0.00 in Snow Light Snow
2:57 AM 28.0 °F 16.1 °F 23.0 °F 81% 29.47 in 2.5 mi SSW 16.1 mph 27.6 mph 0.00 in Snow Light Snow
3:04 AM 28.4 °F 15.1 °F 23.0 °F 80% 29.56 in 1.2 mi SW 20.7 mph 25.3 mph 0.00 in Snow Light Snow
3:14 AM 26.6 °F 14.7 °F 24.8 °F 93% 29.56 in 1.2 mi SW 15.0 mph - 0.01 in Snow Light Snow
3:24 AM 26.6 °F 15.7 °F 24.8 °F 93% 29.55 in 1.0 mi SW 12.7 mph - 0.01 in Snow Light Snow
3:31 AM 26.6 °F 16.2 °F 24.8 °F 93% 29.55 in 0.5 mi SW 11.5 mph 18.4 mph 0.02 in Fog , Snow Snow
3:46 AM 26.6 °F 14.7 °F 24.8 °F 93% 29.55 in 0.2 mi SW 15.0 mph 21.9 mph 0.04 in Fog , Snow Heavy Snow
3:57 AM 27.0 °F 15.2 °F 25.0 °F 92% 29.46 in 0.2 mi SW 15.0 mph 23.0 mph 0.05 in Fog , Snow Heavy Snow
4:15 AM 26.6 °F 15.2 °F 24.8 °F 93% 29.53 in 0.2 mi SW 13.8 mph 20.7 mph 0.04 in Fog , Snow Heavy Snow
4:35 AM 26.6 °F 12.7 °F 24.8 °F 93% 29.52 in 0.5 mi SSW 20.7 mph 27.6 mph 0.12 in Fog , Snow Snow
4:46 AM 26.6 °F 12.0 °F 24.8 °F 93% 29.53 in 0.5 mi SSW 23.0 mph 33.4 mph 0.12 in Fog , Snow Snow
4:57 AM 26.1 °F 12.0 °F 25.0 °F 96% 29.46 in 0.5 mi SSW 20.7 mph 28.8 mph 0.13 in Fog , Snow Snow
5:12 AM 24.8 °F 10.3 °F 24.8 °F 100% 29.55 in 0.2 mi SSW 20.7 mph 33.4 mph 0.00 in Fog , Snow Heavy Snow
5:19 AM 24.8 °F 10.7 °F 23.0 °F 93% 29.55 in 0.2 mi SW 19.6 mph - 0.01 in Fog , Snow Snow
5:26 AM 24.8 °F 13.4 °F 23.0 °F 93% 29.55 in 0.8 mi SW 12.7 mph 25.3 mph 0.02 in Snow Light Snow
5:30 AM 24.8 °F 14.0 °F 23.0 °F 93% 29.55 in 1.0 mi SSW 11.5 mph - 0.02 in Snow Light Snow
5:42 AM 24.8 °F 15.3 °F 24.8 °F 100% 29.55 in 0.5 mi SW 9.2 mph - 0.03 in Fog , Snow Snow
5:52 AM 24.8 °F 15.3 °F 24.8 °F 100% 29.55 in 0.5 mi SSW 9.2 mph - 0.04 in Fog , Snow Snow
5:57 AM 25.0 °F 12.2 °F 24.1 °F 96% 29.49 in 0.5 mi South 16.1 mph 20.7 mph 0.05 in Fog , Snow Snow
6:16 AM 24.8 °F 12.9 °F 23.0 °F 93% 29.54 in 1.2 mi SSW 13.8 mph 24.2 mph 0.01 in Snow Light Snow
6:27 AM 24.8 °F 11.5 °F 23.0 °F 93% 29.54 in 2.5 mi SSW 17.3 mph - 0.02 in Snow Light Snow
6:31 AM 24.8 °F 11.9 °F 23.0 °F 93% 29.54 in 3.0 mi SW 16.1 mph - 0.02 in Snow Light Snow
6:39 AM 24.8 °F 12.4 °F 23.0 °F 93% 29.54 in 4.0 mi SW 15.0 mph - 0.02 in Snow Light Snow
6:46 AM 24.8 °F 11.5 °F 23.0 °F 93% 29.54 in 6.0 mi SW 17.3 mph 24.2 mph 0.02 in Snow Light Snow
6:57 AM 25.0 °F 13.6 °F 23.0 °F 92% 29.50 in 6.0 mi SSW 12.7 mph - 0.02 in Snow Light Snow
7:04 AM 24.8 °F 13.4 °F 23.0 °F 93% 29.54 in 2.0 mi SSW 12.7 mph - 0.00 in Snow Light Snow
7:22 AM 24.8 °F 12.4 °F 21.2 °F 86% 29.54 in 3.0 mi SW 15.0 mph 24.2 mph 0.00 in Snow Light Snow
7:38 AM 24.8 °F 14.6 °F 21.2 °F 86% 29.55 in 4.0 mi SW 10.4 mph 20.7 mph 0.00 in Snow Light Snow
7:41 AM 24.8 °F 13.4 °F 23.0 °F 93% 29.55 in 2.5 mi SW 12.7 mph 20.7 mph 0.00 in Snow Light Snow
7:45 AM 24.8 °F 14.6 °F 23.0 °F 93% 29.55 in 0.8 mi SW 10.4 mph - 0.00 in Snow Light Snow
7:55 AM 24.8 °F 11.9 °F 23.0 °F 93% 29.55 in 0.2 mi SW 16.1 mph 23.0 mph 0.02 in Fog , Snow Heavy Snow
7:57 AM 25.0 °F 11.7 °F 23.0 °F 92% 29.51 in 0.2 mi SW 17.3 mph 23.0 mph 0.02 in Fog , Snow Heavy Snow
8:12 AM 24.8 °F 11.9 °F 21.2 °F 86% 29.55 in 1.0 mi SW 16.1 mph - 0.01 in Snow Light Snow
8:16 AM 24.8 °F 11.9 °F 21.2 °F 86% 29.56 in 3.0 mi SW 16.1 mph - 0.01 in Snow Light Snow
8:26 AM 24.8 °F 13.4 °F 19.4 °F 80% 29.56 in 7.0 mi SW 12.7 mph - 0.01 in Snow Light Snow
8:57 AM 25.0 °F 12.6 °F 19.9 °F 81% 29.53 in 8.0 mi SW 15.0 mph - 0.01 in Snow Light Snow
9:57 AM 25.0 °F 16.3 °F 21.0 °F 85% 29.54 in 6.0 mi SW 8.1 mph - 0.00 in Snow Light Snow
10:57 AM 27.0 °F 16.7 °F 21.9 °F 81% 29.52 in 10.0 mi SW 11.5 mph - 0.00 in   Overcast
11:09 AM 26.6 °F 16.2 °F 23.0 °F 86% 29.57 in 5.0 mi SSW 11.5 mph - 0.00 in Snow Light Snow
11:33 AM 26.6 °F 18.2 °F 21.2 °F 80% 29.58 in 10.0 mi SSW 8.1 mph - 0.00 in   Overcast
11:57 AM 26.1 °F 19.4 °F 21.9 °F 84% 29.54 in 3.0 mi SSW 5.8 mph - 0.00 in Snow Light Snow
12:00 PM 26.6 °F 19.1 °F 23.0 °F 86% 29.57 in 2.5 mi SSW 6.9 mph - 0.00 in Snow Light Snow
12:08 PM 26.6 °F 19.1 °F 23.0 °F 86% 29.57 in 2.5 mi SSW 6.9 mph - 0.00 in Snow Light Snow
12:19 PM 26.6 °F 17.5 °F 23.0 °F 86% 29.57 in 1.0 mi SSW 9.2 mph - 0.00 in Snow Light Snow
12:43 PM 26.6 °F 16.2 °F 21.2 °F 80% 29.57 in 2.0 mi SSW 11.5 mph - 0.00 in Snow Light Snow
12:52 PM 26.6 °F 18.2 °F 21.2 °F 80% 29.57 in 1.0 mi SSW 8.1 mph - 0.00 in Snow Light Snow
12:57 PM 25.0 °F 16.3 °F 21.9 °F 88% 29.55 in 0.8 mi SSW 8.1 mph - 0.01 in Snow Light Snow
1:14 PM 24.8 °F 15.3 °F 21.2 °F 86% 29.56 in 0.8 mi SW 9.2 mph - 0.00 in Snow Light Snow
1:26 PM 24.8 °F 14.6 °F 23.0 °F 93% 29.56 in 0.8 mi SSW 10.4 mph - 0.00 in Snow Light Snow
1:31 PM 24.8 °F 15.3 °F 21.2 °F 86% 29.56 in 1.0 mi SSW 9.2 mph - 0.00 in Snow Light Snow
1:57 PM 25.0 °F 14.8 °F 21.9 °F 88% 29.54 in 1.0 mi SSW 10.4 mph - 0.01 in Snow Light Snow
2:18 PM 24.8 °F 12.9 °F 19.4 °F 80% 29.56 in 1.5 mi SSW 13.8 mph - 0.00 in Snow Light Snow
2:23 PM 24.8 °F 12.9 °F 19.4 °F 80% 29.56 in 3.0 mi SSW 13.8 mph - 0.00 in Snow Light Snow
2:39 PM 24.8 °F 13.4 °F 19.4 °F 80% 29.57 in 8.0 mi South 12.7 mph - 0.00 in Snow Light Snow
2:49 PM 23.0 °F 10.6 °F 19.4 °F 86% 29.57 in 2.0 mi SSW 13.8 mph - 0.00 in Snow Light Snow
2:51 PM 23.0 °F 11.1 °F 19.4 °F 86% 29.57 in 1.5 mi SSW 12.7 mph - 0.00 in Snow Light Snow
2:57 PM 23.0 °F 11.7 °F 19.9 °F 88% 29.58 in 1.0 mi SSW 11.5 mph - 0.00 in Snow Light Snow
3:05 PM 23.0 °F 10.6 °F 19.4 °F 86% 29.58 in 0.8 mi SSW 13.8 mph - 0.00 in Snow Light Snow
3:15 PM 23.0 °F 11.7 °F 19.4 °F 86% 29.58 in 0.8 mi SSW 11.5 mph - 0.01 in Snow Light Snow
3:45 PM 23.0 °F 11.1 °F 19.4 °F 86% 29.59 in 1.0 mi SW 12.7 mph - 0.01 in Snow Light Snow
3:57 PM 24.1 °F 13.1 °F 21.0 °F 88% 29.59 in 1.0 mi SSW 11.5 mph - 0.01 in Snow Light Snow
4:05 PM 24.8 °F 13.4 °F 21.2 °F 86% 29.59 in 0.8 mi SW 12.7 mph - 0.00 in Snow Light Snow
4:21 PM 24.8 °F 16.1 °F 19.4 °F 80% 29.60 in 1.0 mi WSW 8.1 mph - 0.01 in Snow Light Snow
4:36 PM 24.8 °F 16.1 °F 19.4 °F 80% 29.60 in 0.8 mi WSW 8.1 mph - 0.01 in Snow Light Snow
4:57 PM 23.0 °F 12.4 °F 19.0 °F 85% 29.62 in 1.5 mi WSW 10.4 mph - 0.02 in Snow Light Snow
5:24 PM 21.2 °F 10.1 °F 17.6 °F 86% 29.62 in 2.5 mi WSW 10.4 mph 18.4 mph 0.00 in Snow Light Snow
5:36 PM 21.2 °F 10.9 °F 17.6 °F 86% 29.62 in 3.0 mi WSW 9.2 mph - 0.00 in Snow Light Snow
5:50 PM 21.2 °F 11.7 °F 17.6 °F 86% 29.63 in 3.0 mi WSW 8.1 mph - 0.00 in Snow Light Snow
5:57 PM 21.0 °F 12.4 °F 17.1 °F 85% 29.66 in 5.0 mi West 6.9 mph - 0.00 in   Overcast
6:57 PM 19.9 °F 12.1 °F 14.0 °F 78% 29.70 in 10.0 mi Variable 5.8 mph - N/A   Overcast
7:57 PM 19.9 °F 13.4 °F 15.1 °F 81% 29.72 in 10.0 mi West 4.6 mph - 0.00 in   Overcast
8:22 PM 19.4 °F 11.5 °F 14.0 °F 80% 29.69 in 10.0 mi WSW 5.8 mph - N/A   Overcast
8:57 PM 19.9 °F 13.4 °F 14.0 °F 78% 29.74 in 5.0 mi WSW 4.6 mph - 0.00 in Snow Light Snow
9:04 PM 19.4 °F 9.5 °F 14.0 °F 80% 29.71 in 4.0 mi SW 8.1 mph - 0.00 in Snow Light Snow
9:57 PM 19.0 °F 7.5 °F 16.0 °F 88% 29.77 in 9.0 mi SW 10.4 mph - 0.00 in Snow Light Snow
10:14 PM 19.4 °F 8.6 °F 15.8 °F 86% 29.73 in 9.0 mi SW 9.2 mph - 0.00 in Snow Light Snow
10:57 PM 19.9 °F 7.9 °F 17.1 °F 89% 29.78 in 9.0 mi SW 11.5 mph - 0.00 in Snow Light Snow
11:45 PM 21.2 °F 10.1 °F 17.6 °F 86% 29.76 in 10.0 mi SW 10.4 mph - 0.00 in   Overcast
11:57 PM 21.0 °F 12.4 °F 19.0 °F 92% 29.79 in 10.0 mi WSW 6.9 mph - 0.00 in   Overcast